Location: Northam
(31.6525°S, 116.6655°E)
Time: 10:01:03
(UTC+08:00)

A-11 Canister half - Visible Passes

Search period start: 13 June 2021 00:00
Search period end: 23 June 2021 00:00
Orbit: 1513 x 1686 km, 47.2° (Epoch: 12 June)

Date Brightness Start Highest point End Pass type
(mag) Time Alt. Az. Time Alt. Az. Time Alt. Az.
13 Jun 9.4 18:37:10 10° WNW 18:46:28 58° SSW 18:53:24 21° SE visible
13 Jun 10.2 20:44:52 10° WSW 20:51:37 31° SSW 20:51:37 31° SSW visible
14 Jun 9.4 18:14:10 10° WNW 18:23:29 61° SSW 18:31:47 15° SE visible
14 Jun 10.0 20:21:47 10° WSW 20:30:00 33° S 20:30:00 33° S visible
15 Jun 9.3 17:51:12 10° WNW 18:00:31 64° SSW 18:10:10 10° SE visible
15 Jun 9.9 19:58:42 10° WSW 20:07:13 33° S 20:08:22 33° S visible
15 Jun 11.2 22:05:45 10° SW 22:06:33 13° SW 22:06:33 13° SW visible
16 Jun 9.3 17:28:13 10° WNW 17:37:33 67° SSW 17:47:17 10° SE visible
16 Jun 9.9 19:35:37 10° WSW 19:44:08 34° S 19:46:42 30° SSE visible
16 Jun 10.9 21:42:47 10° SW 21:44:54 17° SW 21:44:54 17° SW visible
17 Jun 9.9 19:12:33 10° WSW 19:21:03 34° SSW 19:25:04 26° SSE visible
17 Jun 10.6 21:19:49 10° SW 21:23:16 22° SW 21:23:16 22° SW visible
18 Jun 9.9 18:49:28 10° WSW 18:58:00 35° SSW 19:03:24 21° SE visible
18 Jun 10.4 20:56:49 10° SW 21:01:36 27° SSW 21:01:36 27° SSW visible
19 Jun 9.9 18:26:23 10° W 18:34:56 36° SSW 18:41:45 17° SE visible
19 Jun 10.1 20:33:50 10° SW 20:39:56 30° SSW 20:39:56 30° SSW visible
20 Jun 9.9 18:03:18 10° W 18:11:54 37° SSW 18:20:05 12° SE visible
20 Jun 9.9 20:10:51 10° SW 20:18:17 33° S 20:18:17 33° S visible
20 Jun 11.3 22:16:17 10° SW 22:16:29 11° SW 22:16:29 11° SW visible
21 Jun 9.9 17:40:13 10° W 17:48:51 38° SSW 17:57:46 10° SE visible
21 Jun 9.8 19:47:51 10° SW 19:56:21 33° S 19:56:38 33° SSE visible
21 Jun 11.0 21:53:22 10° SW 21:54:50 16° SW 21:54:50 16° SW visible
22 Jun 9.8 19:24:51 10° SW 19:33:16 32° S 19:35:01 31° SSE visible
22 Jun 10.7 21:30:27 10° SW 21:33:13 21° SW 21:33:13 21° SW visible
